sat.trackr.live / text

‹ back to catalog

STARLINK-4620

NORAD 53674 · 2022-105AC

PAYLOAD ACTIVE UNKNOWN

§ Identity

Operator
Country
US
Launch date
2022-08-31
Launch site
AFWTR
Launch vehicle
Mass (kg)
RCS (m²)

Purposes: comms

External: N2YO · Heavens-Above · Gunter

§ Orbital elements

Epoch: 2026-05-25T03:20:53.822112Z

Period
95.64 min
Inclination
97.4483°
Eccentricity
0.0003119
Mean motion
15.05661537 rev/d
Perigee alt
547.3 km
Apogee alt
551.6 km
Semi-major
6,927.6 km
B*
-1.0060e-4
RAAN
25.0884°
Arg perigee
67.7729°
Mean anomaly
292.3828°
Rev number
20,473

§ Raw data

STARLINK-46201 53674U 22105AC  26145.13951183 -.00001511  00000+0 -10060-3 0  99932 53674  97.4483  25.0884 0003119  67.7729 292.3828 15.05661537204730

JSON: /api/v1/satellites/53674 · /tle

For live sub-satellite position, see the globe view (requires WebGL).

§ Visibility from observer

Set your observer location to see the next 7 days of passes ≥ 10°. The values pass through the URL so the page stays shareable.

No JS? Fill the form by hand. The geolocation button needs JavaScript.